This demonstration page uses our WeatherBlox Daily Observations layout. Learn more.

Left ArrowRight Arrow

Hourly Observations for June 13, 2016

Temp ( °F °C ) Dew Point ( °F °C ) Humidity (%) Winds ( mph kmh ) Pressure ( in mb ) Visibility ( mi km ) Precip ( " mm )
12:53 am 00:53 Clear 71 21.7 53 11.7 53 53 NNW 3 6 29.95 1014 10 16 0.00 0.00
1:53 am 01:53 Clear 69 20.6 52 11.1 55 55 Calm 29.95 1014 10 16 0.00 0.00
2:53 am 02:53 Clear 66 18.9 52 11.1 61 61 Calm 29.94 1014 10 16 0.00 0.00
3:53 am 03:53 Clear 65 18.3 51 10.6 61 61 Calm 29.95 1014 10 16 0.00 0.00
4:53 am 04:53 Clear 63 17.2 52 11.1 68 68 Calm 29.96 1015 10 16 0.00 0.00
5:53 am 05:53 Sunny 62 16.7 51 10.6 67 67 Calm 29.97 1015 10 16 0.00 0.00
6:53 am 06:53 Sunny 66 18.9 51 10.6 59 59 Calm 29.98 1015 10 16 0.00 0.00
7:53 am 07:53 Sunny 71 21.7 51 10.6 49 49 Calm 29.98 1015 10 16 0.00 0.00
8:53 am 08:53 Sunny 73 22.8 53 11.7 50 50 SSE 6 9 29.98 1015 10 16 0.00 0.00
9:53 am 09:53 Sunny 76 24.4 53 11.7 45 45 S 7 11 29.97 1015 10 16 0.00 0.00
10:53 am 10:53 Sunny 80 26.7 52 11.1 38 38 VRB 5 7 29.96 1015 10 16 0.00 0.00
11:53 am 11:53 Sunny 82 27.8 51 10.6 34 34 S 9 15 29.94 1014 10 16 0.00 0.00
12:53 pm 12:53 Sunny 85 29.4 47 8.3 27 27 S 10 17 29.91 1013 10 16 0.00 0.00
1:53 pm 13:53 Sunny 86 30 48 8.9 27 27 VRB 3 6 29.90 1012 10 16 0.00 0.00
2:53 pm 14:53 Sunny 88 31.1 49 9.4 26 26 SSE 17 28 29.87 1012 10 16 0.00 0.00
3:53 pm 15:53 Sunny 87 30.6 45 7.2 23 23 S 18 30 29.85 1011 10 16 0.00 0.00
4:53 pm 16:53 Sunny 85 29.4 45 7.2 25 25 S 17 28 29.84 1011 10 16 0.00 0.00
5:53 pm 17:53 Sunny 85 29.4 48 8.9 28 28 S 18 30 29.83 1010 10 16 0.00 0.00
6:53 pm 18:53 Sunny 82 27.8 51 10.6 34 34 S 17 28 29.83 1010 10 16 0.00 0.00
7:53 pm 19:53 Sunny 81 27.2 53 11.7 38 38 S 13 20 29.83 1010 10 16 0.00 0.00
8:53 pm 20:53 Clear 79 26.1 38 3.3 23 23 WSW 7 11 29.84 1010 10 16 0.00 0.00
9:53 pm 21:53 Cloudy 77 25 26 -3.3 15 15 WSW 5 7 29.85 1011 10 16 0.00 0.00
10:53 pm 22:53 Mostly Cloudy 74 23.3 27 -2.8 17 17 NW 3 6 29.86 1011 10 16 0.00 0.00
11:53 pm 23:53 Partly Cloudy 71 21.7 26 -3.3 19 19 NW 5 7 29.87 1012 10 16 0.00 0.00

Powered by AerisWeather